User: anonymous   Login
Location: Allaines
(49.9632°N, 2.9458°E)
Time: 07:42:41
(UTC+00:00)
Language:

Tiangong - Orbit

View from above orbital plane
View from above orbital plane
View from above satellite
View from above satellite

Ground track
Ground track

The orbit data is extracted from the following two-line orbital elements,

1 48274U 21035A   21215.68901620  .00006674  00000-0  75519-4 0  9993
2 48274  41.4707 353.2721 0009315 292.6013 256.9264 15.62828678 15120
Epoch (UTC): 03 August 2021 16:32:11
Eccentricity: 0.0009315
inclination: 41.4707°
perigee height: 373 km
apogee height: 386 km
right ascension of ascending node: 353.2721°
argument of perigee: 292.6013°
revolutions per day: 15.62828678
mean anomaly at epoch: 256.9264°
orbit number at epoch: 1512

The dashed part of the orbit path shows where the satellite is in the earth's shadow,  

DLR